Regional Weather Roundup
Issued by NWS

Home | Current Version | Previous Version | Graphics & Text | Print | Product List | Glossary On
Versions: 1 2 3 4 5 6 7 8 9 10 11 12 13 14 15 16 17 18 19 20 21 22 23 24 25 26 27 28 29 30 31 32 33 34 35 36 37 38 39 40 41 42 43 44 45 46 47 48 49 50
000
ASUS43 KBIS 200810
RWRND

NORTH DAKOTA REGIONAL WEATHER ROUNDUP
NATIONAL WEATHER SERVICE BISMARCK ND
300 AM CDT WED AUG 20 2014

NOTE: "FAIR" INDICATES FEW OR NO CLOUDS BELOW 12,000 FEET WITH NO
SIGNIFICANT WEATHER AND/OR OBSTRUCTIONS TO VISIBILITY.


NDZ001>003-009>011-017-200900-
NORTHWEST NORTH DAKOTA

CITY           SKY/WX    TMP DP  RH WIND       PRES   REMARKS
WILLISTON      PTCLDY    70  60  70 CALM      29.63F
MINOT          PTCLDY    66  60  81 SE7       29.68F
MINOT AFB      PTCLDY    64  63  99 SE7       29.67F
$$

NDZ018>021-031>035-040>046-200900-
SOUTHWEST NORTH DAKOTA

CITY           SKY/WX    TMP DP  RH WIND       PRES   REMARKS
BISMARCK       CLEAR     68  61  78 E7        29.71F
DICKINSON      PTCLDY    63  57  81 S8        29.67F
GARRISON         N/A     68  62  81 SE8       29.69F
HETTINGER ARPT CLEAR     66  59  78 SE6       29.71F
$$

NDZ004>008-012>016-024-026-027-054-200900-
NORTHEAST NORTH DAKOTA

CITY           SKY/WX    TMP DP  RH WIND       PRES   REMARKS
GRAND FORKS    CLEAR     63  61  93 S3        29.76S
GRND FRKS AFB  CLEAR     64  64  99 SE5       29.77S
DEVILS LAKE    CLEAR     70  63  78 SE7       29.73F
$$

NDZ022-023-025-028>030-036>039-047>053-200900-
SOUTHEAST NORTH DAKOTA

CITY           SKY/WX    TMP DP  RH WIND       PRES   REMARKS
FARGO          CLEAR     67  62  84 SE6       29.76F
JAMESTOWN      MOCLDY    66  63  90 SE7       29.75F
$$




USA.gov is the U.S. government's official web portal to all federal, state and local government web resources and services.